Regional Weather Roundup
Issued by NWS Charleston, SC

Current Version | Previous Version | Text Only | Print | Product List | Glossary Off
Versions: 1 2 3 4 5 6 7 8 9 10 11 12 13 14 15 16 17 18 19 20 21 22 23 24 25 26 27 28 29 30 31 32 33 34 35 36 37 38 39 40 41 42 43 44 45 46 47 48 49 50

000
ASUS42 KCHS 271827
RWRCHS

REGIONAL WEATHER ROUNDUP
NATIONAL WEATHER SERVICE CHARLESTON SC
200 PM EDT SAT MAY 27 2017

NOTE: "FAIR" INDICATES FEW OR NO CLOUDS BELOW 12,000 FEET WITH NO
SIGNIFICANT WEATHER AND/OR OBSTRUCTIONS TO VISIBILITY.

NOT ALL STATIONS ARE QUALITY CONTROLLED. USE DATA WITH CAUTION...
ESPECIALLY DEWPOINT OBSERVATIONS.

SCZ027-030-031-034>040-042>050-271900-
...SOUTHEAST SOUTH CAROLINA...

CITY           SKY/WX    TMP DP  RH WIND       PRES   REMARKS
N CHARLESTON   MOSUNNY   89  64  43 W12       29.99F HX  90
6HR MIN TEMP:  72; 6HR MAX TEMP:  89;

WATERFRONT PRK   N/A     85  66  52 W7        29.98F
JOHNS ISLAND   FAIR      86  70  58 S12       29.99F HX  90
PINOPOLIS        N/A     82  68  61 W7        29.92F
MONCKS CORNER  FAIR      88  59  37 SW13G18   29.98S
SUMMERVILLE    FAIR      88  63  42 SW10      29.99F
BEAUFORT MCAS  MOSUNNY   90  65  43 W15       30.00F HX  92
6HR MIN TEMP:  71; 6HR MAX TEMP:  90;

BEAUFORT ARPT  FAIR      88  64  45 SW7       30.00F
HILTON HEAD IS SUNNY     90  63  40 SW12      30.02F HX  90
WALTERBORO     CLEAR     90  63  40 W14       30.00F HX  90
ALLENDALE      FAIR      90  61  37 VRB7G15   29.99F

...SOUTHERN MIDLANDS AND PEE DEE...

CITY           SKY/WX    TMP DP  RH WIND       PRES   REMARKS
GEORGETOWN     FAIR      88  61  40 W10G16    29.98F
KINGSTREE      FAIR      88  64  45 SW10      29.96F
ORANGEBURG     SUNNY     89  63  41 W14G22    29.98F HX  90
6HR MIN TEMP:  69; 6HR MAX TEMP:  89;

BARNWELL       FAIR      91  64  40 W12G17    29.99F HX  93
AIKEN          FAIR      88  63  42 W12G22    30.03F
MANNING        FAIR      88  68  51 W21G33    29.97F HX  91
COLUMBIA       PTSUNNY   90  64  42 W16       29.97S HX  91
6HR MIN TEMP:  74; 6HR MAX TEMP:  91;

SUMTER         MOSUNNY   89  63  41 W18G25    29.94F HX  90
6HR MIN TEMP:  72; 6HR MAX TEMP:  89;

FLORENCE       MOSUNNY   88  67  49 SW12G22   29.95F HX  91
6HR MIN TEMP:  68; 6HR MAX TEMP:  88;

MYRTLE BEACH   SUNNY     84  70  61 VRB6      29.97F
N MYRTLE BEACH SUNNY     83  70  64 S14       29.95F
6HR MIN TEMP:  72; 6HR MAX TEMP:  84;


$$

GAZ063-065-086>088-099>101-113>116-118-119-134>141-150-271900-
...SOUTHEAST GEORGIA...

CITY           SKY/WX    TMP DP  RH WIND       PRES   REMARKS
SAVANNAH ARPT  MOSUNNY   92  61  35 W10       30.02F HX  92
6HR MIN TEMP:  69; 6HR MAX TEMP:  92;

HUNTER AAF     MOSUNNY   89  72  55 W8        30.00F HX  96
6HR MIN TEMP:  71; 6HR MAX TEMP:  90;

FORT STEWART   MOSUNNY   90  62  39 SW10      30.01F HX  90
6HR MIN TEMP:  68; 6HR MAX TEMP:  90;

STATESBORO     SUNNY     90  64  42 W14       30.03S HX  91
SYLVANIA       CLEAR     90  65  43 W8G16     30.03F HX  91
CLAXTON        FAIR      88  65  46 SW10      30.03F HX  90

...CSRA...CENTRAL AND FAR SOUTHEAST GEORGIA...

CITY           SKY/WX    TMP DP  RH WIND       PRES   REMARKS
THOMSON        SUNNY     87  59  37 NW9G18    30.07S
AUGUSTA-BUSH   SUNNY     92  61  35 W13G18    29.99F HX  92
6HR MIN TEMP:  69; 6HR MAX TEMP:  92;

AUGUSTA-DANIEL SUNNY     89  57  33 SW8G18    30.01F
SWAINSBORO     FAIR      88  61  40 W12G20    30.05S
VIDALIA        SUNNY     88  63  42 SW8       30.05F
EASTMAN        FAIR      88  39  17 W7        30.08F
HAZLEHURST     FAIR      89  63  40 W8        30.05S HX  90
ALMA           SUNNY     89  62  40 SW8       30.05F
6HR MIN TEMP:  68; 6HR MAX TEMP:  89;

WAYCROSS       SUNNY     93  67  42 W8        30.05S HX  96
JESUP          FAIR      90  55  31 W8        30.04F
BAXLEY         FAIR      90  66  45 W7        30.04F HX  92
BRUNSWICK      SUNNY     91  64  40 SW9       30.04F HX  93
SAINT SIMONS   SUNNY     87  66  49 S9        30.04F
6HR MIN TEMP:  71; 6HR MAX TEMP:  89; 6HR PCP: TRACE;


$$

SCZ027-028-034-036>038-045-046-048>050-GAZ119-141-271900-
...LAKE AND SUPPLEMENTAL COASTAL OBSERVATIONS...

STATION/POSITION TIME  TEMP    WIND        PRES    WAVE   SWELL
                       AIR SEA DIR/SP/G            HT/PER HT/PER/DIR
                 (UTC) (F)     (DEG/KT/KT) (MB)    (FT/S) (FT/S/D)
WINYAH BAY       1745   86     260/ 10     1015.0S
LAKE MURRAY      1750   83     260/ 14/ 16 1014.2F
ACE BASIN NERRS  1730   87     230/  3     1016.0F
FORT PULASKI     1800   86     220/  7/ 11 1016.8
SAPELO ISLAND    1730   86     250/  3     1017.0F

$$

ANZ835-935-AMZ111-154-330-350-352-354-370-450-454-472-271900-
...C-MAN AND BUOY OBSERVATIONS...

STATION/POSITION TIME  TEMP    WIND        PRES    WAVE   SWELL
                       AIR SEA DIR/SP/G            HT/PER HT/PER/DIR
                 (UTC) (F)     (DEG/KT/KT) (MB)    (FT/S) (FT/S/D)
BUOY 41004       1810   76 75  240/ 12/ 14 1016.3
BUOY 41008       1750   78 78  220/  8/  8 1017.3F   2/ 8   2/110/ 8
FOLLY BEACH CMAN 1800   78     210/ 15/ 17 1016.6F
CAPERS NEARSHORE 1808   82 77  220/ 14/ 19 1015.5F
FRIPP NEARSHORE  1808   79 79  210/ 12/ 16 1016.5F


STATION/POSITION TIME  TEMP    WIND        PRES    WAVE   SWELL
                       AIR SEA DIR/SP/G            HT/PER HT/PER/DIR
                 (UTC) (F)     (DEG/KT/KT) (MB)    (FT/S) (FT/S/D)
5E ST. MARYS GA  1800      80                N/A     1/ 8
FRYING PAN BUOY  1800   75 76  230/ 17/ 19 1015.0
BUOY 41025       1750   76 78  230/ 14/ 16 1014.0F   3/ 8   2/140/ 8
CAPE LOOKOUT NC  1800   79     210/ 11/ 13 1013.7F
BUOY 41002       1750   76 78  240/ 10/ 12 1017.1F   3/ 8   3/140/ 8
BUOY 41010       1810   79 80  180/  2/  4 1018.0
ST AUGUSTINE FL  1800   76 78  100/  8/  8 1018.4F


$$



USA.gov is the U.S. government's official web portal to all federal, state and local government web resources and services.